STARLINK-2406, 47821

Orbit data source: Space-Track

STARLINK-2406, 47821 is a payload satellite owned by SpaceX/Seattle (US) in LEO that was launched on Thu, 11 Mar 2021 UTC via an FALCON 9 launch vehicle from the Air Force Eastern Test Range (AFETR). Payload-class satellites include a variety of spacecraft equipped with specific instruments for various scientific and technological missions. These include communications satellites like Starlink; space stations such as the ISS; scientific satellites like the Hubble; Earth observation satellites from companies like Planet Labs, Umbra, and HawkEye 360; GPS; miniature CubeSats for education and research; and military/defense satellites.

Loading next visibility...
Identifier
47821, 2021-018AL
Orbit
LEO
Country
Flag of USUS
Related business
Manufacturer
SpaceX/Seattle
Mission
Operational Commercial Communications
Bus & Motor
STARLINK, Unknown motor
Mass
260 kg wet, ~248 kg dry
Launch date (UTC)
2021-03-11 (5 years ago)
Launch vehicle
FALCON 9
Launch site
Air Force Eastern Test Range (AFETR)
Object type
Payload
Rocket body
Debris
Shape & HBR
Box + 1 Pan, 10.1 m
Radar Cross Section
13.562 m², Large (>1 m²)

Expand to show TLE details & history
Last TLE update: 12 hours ago

TLE from 12 hours ago
0 STARLINK-2406
1 47821U 21018AL  26248.08951658  .00001169  00000-0  49407-4 0  9993
2 47821  53.1592 128.0483 0000893  97.0254 263.0849 15.31703849304215
Epoch: 2026-09-05T02:08Z
TLE epoch observation values (Epoch: 2026-09-05T02:08:54.232Z)
Latitude
-0.00002°
Longitude
111.61833°
Altitude
471.702 km
Speed
7.631 km/s
True Right ascension
08h 32m 11s
True Declination
0° 00' 00"
Sunlit
Object was in daylight at epoch
Visualization orbit readout
Latitude
Unknown
Longitude
Unknown
Altitude
Unknown
Speed
Unknown
Apparent Right ascension
Unknown
Apparent Declination
Unknown
Sunlit
N/A
Visualization observer readout
Local Sidereal Time
05:59:33
Azimuth
Unknown
Elevation
Unknown
Doppler factor
Unknown
Orbital elements
Apogee altitude
471.597 km
Perigee altitude
470.374 km
Semi-major axis
6,849.122 km
Eccentricity
0.00009
Inclination
53.1592°
RAAN
128.0483°
Arg. of periapsis
97.0254°
True anomaly
263.07474°
Mean anomaly
263.0849°
Eccentric anomaly
263.07982°
Mean motion
3.82905 °/min
Orbital period
94.02 mins
BSTAR
0.000049407
Loading maneuver chart data...
Computing Atmospheric mass density...
Loading historical data...
Loading historical data...
Loading historical data...
Loading historical data...
Loading historical data...
Loading historical data...
Loading historical data...

Documentation

Showing up to 5 results
|